Вернуться в каталог

STARLINK-36603

АктивенСвязьSSO
NORAD 67592·PAYLOAD·🇺🇸 United States

Запущен Jan 29, 2026 с Vandenberg Space Force Base

Loading…

Ближайшие Пролёты (ближайшие 24 часа)

TLE

СвежийSource: CelesTrak SupGP

Эпоха: Sep 14, 2026, 23:14 UTC

1 67592C 26018D   26257.96854167  .00006584  00000+0  20441-3 0  2577
2 67592  97.2853 321.5047 0000545  91.7873 230.8553 15.33433253    15

Отслеживайте STARLINK-36603 в реальном времени с AllMySat

Download on the App Store